Погода в Северодвинске

Поиск расширенной информации на нашем сайте:

Полезная информация:

Новости сайта



02.01.2020
Опубликован Долгосрочный прогноз погоды по городам России и ближнего зарубежья на январь 2020 года.
Карты: Прогноз на январь и февраль 2020 года, Сравнение прогнозируемой аномалии приземной температуры воздуха на январь 2020 года по разным моделям.




Погода в Северодвинске - сегодня

Время (UTC), дата Ветер
(°,м/с) 
Видим.   Явления Облачность Т
(°С)
Тd
(°С)
f(%) Тe
(°С)
Pmin
(гПа)
dP
(гПа)
Po
(мм)
O2
(г/м3)
Тmin Tmax R s Состояние
почвы
06 29.11.20 150 (ЮВ) 20000 м    10/10 180 м 
[St]
-8.4 -9.6 91 -12  1037.7  -0.5  778  324  -8.4         
09 29.11.20 160 (Ю) 20000 м    10/10 180 м 
[St]
-7 -8.1 92 -8  1038  0.2  778  323           
12 29.11.20 170 (Ю) 20000 м    10/10 210 м 
[St]
-7.2 -8.6 90 -11  1037.1  -0.8  777  323           
15 29.11.20 200 (Ю) 20000 м  {снег}  10/10 240 м 
[St]
-7.7 -9.2 89 -9  1036.8  -0.3  777  323    -6.8  0.0     
18 29.11.20 150 (ЮВ) 20000 м  {снег}  10/10 210 м 
[St]
-6.3 -7.5 91 -8  1036.7  -0.1  777  321           
21 29.11.20 140 (ЮВ) 20000 м  {снег}  10/10 240 м 
[St]
-6.5 -8.1 88 -8  1035.7  -1  776  321           
00 30.11.20 160 (Ю) 20000 м  {снег}  10/10 210 м 
[St]
-6.1 -7.6 89 -8  1034.5  -1.3  775  320           
03 30.11.20 150 (ЮВ) 20000 м  {снег}  10/8 240 м средняя 
[St|As trans]
-5.1 -6.7 89 -7  1032.7  -1.7  774  318  -7.7    0.0  равномерный
сухой снег
100% 
06 30.11.20 160 (Ю) 20000 м  {снег}  10/10 150 м 
[St]
-4.5 -5.4 93 -7  1031.9  -0.9  773  317           
09 30.11.20 150 (ЮВ) 10 км  снежные зёрна  10/10 270 м 
[St]
-3.5 -5.1 89 -6  1031  -0.9  772  316           
12 30.11.20 140 (ЮВ) 20000 м  {снег}  10/10 240 м 
[Sc]
-2.8 -4.3 89 -5  1029.7  -1.2  772  315           
15 30.11.20 150 (ЮВ) 4000 м  снежные зёрна  10/10 180 м 
[St]
-2.2 -3.1 94 -4  1028  -1.7  770  313    -2.2  0.0     
18 30.11.20 150 (ЮВ) 20000 м  {снег}  10/10 270 м 
[St]
-1.1 -2.6 90 -3  1025.6  -2.4  768  311           
21 30.11.20 150 (ЮВ) 4000 м  снежные зёрна  10/10 210 м 
[St]
-0.5 -1.6 92 -1  1023.8  -1.9  767  310           
00 01.12.20 150 (ЮВ) 4000 м  слаб. снег  10/10 240 м 
[Sc]
+0.1 -1 92 -1  1022  -1.8  766  309           
03 01.12.20 160 (Ю) 4000 м  слаб. снег  10/8 300 м средняя 
[Frnb|As trans]
+0.3 -0.8 92 1021  -1  765  308  -2.2    0.4  равномерный
мокрый или
старый снег
100% 
06 01.12.20 160 (Ю) 20000 м  {снег}  9/0 средняя, верхняя 
[Ac As|Ci fib]
+0.4 -1.5 87 -1  1020.8  -0.2  765  308           
09 01.12.20 180 (Ю) 20000 м    4/3 300 м верхняя 
[Sc|Cc]
+0.6 -2.3 81 -1  1021.1  0.3  765  308           
12 01.12.20 160 (Ю) 20000 м  {ливн. осадки}  9/0 верхняя 
[Ci fib]
-1.1 -3.4 84 -3  1021.2  765  310           
15 01.12.20 170 (Ю) 20000 м    9/9 870 м 
[Sc]
-1.2 -3.4 85 -2  1021.6  0.5  765  310    +0.7  0.0     
18 01.12.20 170 (Ю) 20000 м    4/4 300 м 
[Sc]
-1.2 -3.3 86 -2  1021.7  0.1  766  310           
21 01.12.20 150 (ЮВ) 20000 м  {снег}  10/10 1000 м 
[Sc]
-0.4 -2.4 86 -2  1020.9  -0.8  765  309           
00 02.12.20 170 (Ю) 4000 м  слаб. снег  10/8 300 м средняя 
[Sc|As op]
-0.2 -1.7 90 -2  1020.2  -0.7  764  308           
03 02.12.20 220 (ЮЗ) 20000 м  {снег}  10/10 630 м 
[Sc]
+0.6 -0.6 92 -1  1021.9  1.7  766  308  -1.4    0.4  равномерный
сухой снег
100% 
06 02.12.20 240 (ЮЗ) 20000 м  {снег}  10/8 540 м средняя 
[Sc|As op]
+0.5 -1.3 88 1024.4  2.5  768  309           
Время (UTC), дата Ветер
(°,м/с) 
Видим.   Явления Облачность Т
(°С)
Тd
(°С)
f(%) Тe
(°С)
Pmin
(гПа)
dP
(гПа)
Po
(мм)
O2
(г/м3)
Тmin Tmax R s Состояние
почвы

Для получения пояснительной информации подведите курсор к названию столбца.

ПОГОДА в Северодвинске - архив

Всё, что Вы хотите узнать о погоде в Северодвинске - удобно и подробно!

Выберите нужную дату (начиная с 1 января 2019* года) и нажмите кнопку "Найти".
Будут отображены архивные сводки погоды по пункту Северодвинск, начиная с указанной даты.


Отображать данные в формате CSV (для использования в таблицах Excel)


Внимание! Наш архив погоды предназначен исключительно для личного некоммерческого использования в познавательных целях. Если Вам необходимы официальные справки о состоянии погоды (для производственных, юридических, коммерческих и т.п. целей), обращайтесь в органы Росгидромета.

*Примечание: данная дата относится к архиву по метеостанциям СССР (Россия, СНГ, Балтия).
Архив по метеостанциям Зарубежной Европы и Азии (кроме Китая) хранится 10 дней, по другим регионам земного шара (Китай, Африка, Америка, Австралия, Океания) - 1 день.

Северодвинск - район местоположения метеостанции


Название, широта, долгота, высота метеостанции:
Северодвинск 64.6°ш. 39.8°д. 1 м над ур. моря [Российская Федерация]

Дополнительная информация

В oтличие oт бoльшинства пoгoдных сайтoв мы публикуем пoдрoбную метеoинфoрмацию в детальнoм прoфессиoнальнoм фoрмате.

Характеристики температуры и влажнoсти вoздуха измеряются на высoте 2 м в тени вдали oт зданий и деревьев.
Скoрoсть ветра измеряется на высoте 10 м (на урoвне рoста челoвека скoрoсть ветра ниже в 1.5-2 раза). Если метеoстанция нахoдится в гoрoде или в лесу, тo скoрoсть ветра занижена на 2-4 м/с пo сравнению с oткрытым местoм. Скoрoсть ветра над акватoриями крупных рек и oзёр, а также на вершинах хoлмoв на 2-5 м/с выше, чем в oбычных услoвиях.
Атмoсфернoе давление в разных тoчках местнoсти мoжет значительнo oтличаться oт давления на метеoстанции, в зависимoсти oт услoвий рельефа (при пoдъёме на 10 м давление пoнижается примернo на 1 мм рт.ст.).